User: anonymous   Login
Location: Newark
(40.9833°N, 0.0333°W)
Time: 05:57:32
(UTC+00:00)
Language:

TIGRISAT - Orbit

View from above orbital plane
View from above orbital plane
View from above satellite
View from above satellite

Ground track
Ground track

The orbit data is extracted from the following two-line orbital elements,

1 40043U 14033AK  19325.18401465  .00000125  00000-0  25955-4 0  9999
2 40043  97.7333 186.2023 0059029 315.9138  43.7373 14.74313764291517
Epoch (UTC): 21 November 2019 04:24:58
Eccentricity: 0.0059029
inclination: 97.7333°
perigee height: 606 km
apogee height: 689 km
right ascension of ascending node: 186.2023°
argument of perigee: 315.9138°
revolutions per day: 14.74313764
mean anomaly at epoch: 43.7373°
orbit number at epoch: 29151

The dashed part of the orbit path shows where the satellite is in the earth's shadow,  

DLR